Simultaneous Nadir Overpasses (SNOs) Predictions

Prediction of SNOs between GOES-16 and TERRA Satellite Orbit:

Table of predicted SNOs for the next 14.0 days since TLE Epoch: 3/21/2025
Index Date Time (GOES-16) GOES-16 Lat,Lon TERRA Lat,Lon Distance(km) Time Diff (sec)
1 03/22/2025 14:21:51 0.06, -75.47 -0.34, -73.72 200.51 80
2 03/23/2025 02:44:11 -0.06, -75.45 -0.70, -78.49 346.57 80
3 03/25/2025 02:22:39 -0.06, -75.49 0.24, -73.95 174.42 80
4 03/25/2025 14:42:12 0.06, -75.54 0.73, -78.71 360.46 80
5 03/27/2025 14:25:59 0.06, -75.59 -0.22, -74.16 162.07 80
6 03/28/2025 02:45:39 -0.06, -75.57 -0.75, -78.95 384.23 80
7 03/30/2025 02:24:05 -0.06, -75.62 0.19, -74.40 139.18 80
8 03/30/2025 14:43:37 0.06, -75.67 0.79, -79.15 395.31 80
9 04/01/2025 14:27:23 0.06, -75.73 -0.21, -74.60 128.94 80
10 04/02/2025 02:47:03 -0.06, -75.71 -0.80, -79.39 416.83 80
11 04/04/2025 02:25:27 -0.05, -75.77 0.13, -74.82 107.83 80
12 04/04/2025 14:44:59 0.05, -75.82 0.81, -79.58 426.54 80
